Location: Cottonwood Creek
(38.2361°N, 99.9749°W)
Time: 10:19:43
(UTC+00:00)

Daily predictions for brighter satellites

Satellite Brightness Start Highest point End
(mag) Time Altitude Azimuth Time Altitude Azimuth Time Altitude Azimuth
STARLINK-1035 3.7 12:01:42 10° SW 12:05:50 85° SE 12:09:59 10° NE
Cosmos 494 Rocket 4.2 12:01:47 10° NNW 12:07:04 84° ENE 12:12:20 10° SSE
Cosmos 1092 Rocket 4.1 12:01:56 10° SSW 12:08:16 75° W 12:14:38 10° N
